[Iaude] MPEC E44: 2019 EQ [a=2.16,e=0.71,i=16.9,H=19.4]

mpec at mpcdb1.cfa.harvard.edu mpec at mpcdb1.cfa.harvard.edu
Tue Mar 5 18:33:17 EST 2019


M.P.E.C. 2019-E44                                Issued 2019 Mar. 5, 23:29 UT
 
     The Minor Planet Electronic Circulars contain information on unusual
         minor planets and routine data on comets.  They are published
    on behalf of Division F of the International Astronomical Union by the
          Minor Planet Center, Smithsonian Astrophysical Observatory,
                          Cambridge, MA 02138, U.S.A.

             Prepared using the Tamkin Foundation Computer Network

                              MPC at CFA.HARVARD.EDU
            URL https://www.minorplanetcenter.net/    ISSN 1523-6714


                                    2019 EQ
 
Observations:
     K19E00Q* C2019 03 03.26369 06 42 20.57 +61 00 58.2          18.3 GVEE044703
     K19E00Q  C2019 03 03.26950 06 42 27.44 +61 00 13.2          18.6 GVEE044703
     K19E00Q  C2019 03 03.27531 06 42 34.41 +60 59 30.3          18.6 GVEE044703
     K19E00Q  C2019 03 03.37719 06 44 36.26 +60 46 47.7          18.7 GVEE044703
     K19E00Q  C2019 03 03.37815 06 44 37.44 +60 46 40.0          18.5 GVEE044703
     K19E00Q  C2019 03 03.37910 06 44 38.44 +60 46 32.7          18.1 GVEE044703
     K19E00Q  C2019 03 03.38027 06 44 39.87 +60 46 24.5          19.2 GVEE044703
     K19E00Q KC2019 03 03.79619 06 52 43.45 +59 55 13.9          18.3 RoEE044K88
     K19E00Q KC2019 03 03.79621006 52 43.82 +59 55 14.9          18.3 GVEE044L01
     K19E00Q KC2019 03 03.79698606 52 44.68 +59 55 09.1          18.2 GVEE044L01
     K19E00Q KC2019 03 03.79776106 52 45.54 +59 55 03.3          18.5 GVEE044L01
     K19E00Q KC2019 03 03.79931206 52 47.23 +59 54 51.5          18.4 GVEE044L01
     K19E00Q KC2019 03 03.79980 06 52 47.42 +59 54 46.7          18.2 RoEE044K88
     K19E00Q KC2019 03 03.80342 06 52 51.38 +59 54 19.8          18.2 RoEE044K88
     K19E00Q KC2019 03 03.83973306 53 31.67 +59 49 49.8          18.5 GVEE044C95
     K19E00Q KC2019 03 03.84657106 53 39.08 +59 48 58.9          18.5 GVEE044C95
     K19E00Q KC2019 03 03.84782 06 53 40.15 +59 48 48.8          18.3  VEE044104
     K19E00Q KC2019 03 03.85081 06 53 43.38 +59 48 26.5          18.4  VEE044104
     K19E00Q KC2019 03 03.85091 06 53 43.38 +59 48 24.7          18.5 GVEE044595
     K19E00Q KC2019 03 03.85321 06 53 45.93 +59 48 07.2          18.9 GVEE044595
     K19E00Q KC2019 03 03.85341006 53 46.48 +59 48 07.5          18.5 GVEE044C95
     K19E00Q KC2019 03 03.85439 06 53 47.27 +59 47 59.5          18.5  VEE044104
     K19E00Q KC2019 03 03.85551 06 53 48.41 +59 47 50.1          18.6 GVEE044595
     K19E00Q KC2019 03 03.86024906 53 53.90 +59 47 16.1          18.7 GVEE044C95
     K19E00Q KC2019 03 04.04356706 57 14.32 +59 24 22.3          18.6 VuEE044H21
     K19E00Q KC2019 03 04.04758106 57 18.55 +59 23 52.0          18.6 VuEE044H21
     K19E00Q KC2019 03 04.04860606 57 19.62 +59 23 44.3          18.6 VuEE044H21
     K19E00Q  C2019 03 04.09956 06 58 14.10 +59 17 24.2          18.3 GVEE044I52
     K19E00Q  C2019 03 04.10299 06 58 17.67 +59 16 58.4          18.2 GVEE044I52
     K19E00Q  C2019 03 04.10640 06 58 21.19 +59 16 32.7          18.9 GVEE044I52
     K19E00Q KC2019 03 04.74285 07 08 58.40 +57 56 03.1          18.0 RqEE044585
     K19E00Q KC2019 03 04.74341 07 08 58.91 +57 55 58.8          18.0 RqEE044585
     K19E00Q KC2019 03 04.74402 07 08 59.47 +57 55 54.1          18.0 RqEE044585
     K19E00Q KC2019 03 04.74464 07 09 00.05 +57 55 49.4          18.0 RqEE044585
     K19E00Q KC2019 03 04.74525 07 09 00.61 +57 55 44.6          18.0 RqEE044585
     K19E00Q KC2019 03 04.74649 07 09 01.76 +57 55 35.1          18.0 RqEE044585
     K19E00Q KC2019 03 05.03138907 13 23.58 +57 19 17.2          18.5 GVEE044Z80
     K19E00Q KC2019 03 05.03854607 13 29.97 +57 18 21.9          18.7 GVEE044Z80
     K19E00Q KC2019 03 05.04382307 13 34.68 +57 17 40.7          18.6 GVEE044Z80
     K19E00Q  C2019 03 05.11055107 14 37.95 +57 09 33.9          18.3 GVEE044H01
     K19E00Q  C2019 03 05.11067 07 14 38.27 +57 09 33.6          18.4 GVEE044I52
     K19E00Q  C2019 03 05.11097 07 14 38.53 +57 09 31.2          18.3 GVEE044I52
     K19E00Q  C2019 03 05.11126 07 14 38.80 +57 09 28.9          18.5 GVEE044I52
     K19E00Q  C2019 03 05.11156 07 14 39.04 +57 09 26.6          18.3 GVEE044I52
     K19E00Q  C2019 03 05.11756207 14 44.07 +57 08 40.6          18.5 GVEE044H01
     K19E00Q  C2019 03 05.12595407 14 51.39 +57 07 37.1          18.5 GVEE044H01
     K19E00Q  C2019 03 05.13367807 14 58.12 +57 06 38.4          18.4 GVEE044H01
     K19E00Q KC2019 03 05.78345607 24 08.60 +55 44 12.8          18.5 GVEE044587
     K19E00Q KC2019 03 05.78886307 24 12.85 +55 43 31.8                VEE044587
     K19E00Q KC2019 03 05.79090 07 24 14.56 +55 43 17.3          19.1 VqEE044C77
     K19E00Q KC2019 03 05.79123307 24 14.74 +55 43 13.4                VEE044587
     K19E00Q KC2019 03 05.79543 07 24 18.10 +55 42 42.7          19.0 VqEE044C77
     K19E00Q KC2019 03 05.80003 07 24 21.71 +55 42 08.1          18.8 VqEE044C77
     K19E00Q KC2019 03 05.81069 07 24 29.46 +55 40 46.1          18.5 RoEE044K88
     K19E00Q KC2019 03 05.81326 07 24 31.49 +55 40 26.7          18.6 RoEE044K88
     K19E00Q KC2019 03 05.81582 07 24 33.49 +55 40 07.3          18.6 RoEE044K88
     K19E00Q KC2019 03 05.83562 07 24 48.81 +55 37 37.0          19.0 VtEE044L04
     K19E00Q KC2019 03 05.83898 07 24 51.47 +55 37 11.7          18.7 VtEE044L04
     K19E00Q KC2019 03 05.84277 07 24 54.38 +55 36 42.4          18.9 VtEE044L04
     K19E00Q KC2019 03 05.87992 07 25 23.97 +55 32 02.0          18.6 GVEE044K38
     K19E00Q KC2019 03 05.89216 07 25 33.36 +55 30 28.2          18.4 GVEE044K38
     K19E00Q KC2019 03 05.90375 07 25 42.39 +55 29 00.1          18.7 GVEE044K38
     K19E00Q KC2019 03 05.91532 07 25 51.31 +55 27 32.0          18.5 GVEE044K38
     K19E00Q KC2019 03 05.92685 07 26 00.27 +55 26 04.0          18.6 GVEE044K38
 
Observer details:
104 San Marcello Pistoiese.  Observers P. Bacci, M. Maestripieri.  Measurers
    P. Bacci, L. Tesi, G. Fagioli.  0.60-m reflector + CCD.
585 Kyiv comet station.  Observer A. Baransky.  0.7-m f/4 reflector + CCD.
587 Sormano.  Observers A. Fumagalli, P. Sicoli, A. Testa.  Measurer
    P. Sicoli.  0.5-m f/6.8 reflector + CCD.
595 Farra dIsonzo.  Observer E. Pettarin.  0.61-m f/4.5 reflector + CCD.
703 Catalina Sky Survey.  Observer R. A. Kowalski.  Measurers B. M. Africano,
    E. J. Christensen, G. A. Farneth, D. C. Fuls, A. R. Gibbs, A. D. Grauer,
    H. Groeller, R. A. Kowalski, S. M. Larson, G. J. Leonard, T. A. Pruyne,
    R. L. Seaman, F. C. Shelly.  0.68-m Schmidt + 10K CCD.
C77 Bernezzo Observatory.  Observer A. Mantero.  0.25-m f/4.0 reflector + CCD.
C95 SATINO Remote Observatory, Haute Provence.  Observer J. Jahn.  0.60-m
    f/3.2 Newtonian reflector + CCD.
H01 Magdalena Ridge Observatory, Socorro.  Observers W. H. Ryan, E. V. Ryan.
    Measurer W. H. Ryan.  2.4-m f/8.9 Ritchey-Chretien + CCD.
H21 Astronomical Research Observatory, Westfield.  Observer R. Holmes.
    Measurers S. Foglia, L. Buzzi, T. Linder, R. Holmes.  0.76-m f/3.0
    astrograph + CCD.
I52 Steward Observatory, Mt. Lemmon Station.  Observers D. C. Fuls,
    T. A. Pruyne.  Measurers B. M. Africano, E. J. Christensen, G. A. Farneth,
    D. C. Fuls, A. R. Gibbs, A. D. Grauer, H. Groeller, R. A. Kowalski,
    S. M. Larson, G. J. Leonard, T. A. Pruyne, R. L. Seaman, F. C. Shelly.
    1.0-m reflector + CCD.
K38 M57 Observatory, Saltrio.  Observer G. Baj.  0.3-m f/5.5 Ritchey-Chretien
    + CCD.
K88 GINOP-KHK, Piszkesteto.  Observer K. Sarneczky.  0.60-m Schmidt + CCD.
L01 Visnjan Observatory, Tican.  Observer K. Korlevic.  1.0-m f/2.9 reflector
    + CCD.
L04 ROASTERR-1 Observatory, Cluj-Napoca.  Observer L. Hudin.  0.3-m f/5
    reflector + CCD.
Z80 Northolt Branch Observatory.  Observer G. Wells.  Measurers G. Wells,
    D. Bamberger.  0.25-m f/8.0 Ritchey-Chretien + CCD.
 
Orbital elements:
2019 EQ                                                  Earth MOID = 0.1218 AU
Epoch 2019 Apr. 27.0 TT = JDT 2458600.5                 MPC
M  33.86018              (2000.0)            P               Q
n   0.31066656     Peri.   58.59741     +0.51785529     -0.85546747
a   2.1591014      Node     0.22378     +0.65207227     +0.39386880
e   0.7127431      Incl.   16.93821     +0.55373969     +0.33621833
P   3.17           H   19.4           G   0.15           U   8
Residuals in seconds of arc
190303 703  0.9+  1.5+    190303 595  0.3+  0.3+    190305 H01  0.0   0.2-
190303 703  0.2+  0.3-    190303 C95  0.0   0.0     190305 H01  0.0   0.0
190303 703  0.1+  0.0     190304 H21  0.2-  0.0     190305 H01  0.0   0.1-
190303 703  0.0   0.0     190304 H21  0.0   0.3-    190305 587  0.1+  0.2+
190303 703  0.3+  0.4-    190304 H21  0.0   0.3-    190305 587  0.1+  0.0
190303 703  0.7-  0.6-    190304 I52  0.1-  0.0     190305 C77  0.1+  0.2+
190303 703  0.4-  0.0     190304 I52  0.1+  0.1-    190305 587  0.3+  0.5-
190303 K88  0.2-  0.4+    190304 I52  0.0   0.3-    190305 C77  0.0   0.2-
190303 L01  0.1-  0.0     190304 585  0.0   0.1+    190305 C77  0.0   0.1-
190303 L01  0.0   0.0     190304 585  0.1-  0.1+    190305 K88  0.2-  0.3+
190303 L01  0.1+  0.0     190304 585  0.2-  0.0     190305 K88  0.0   0.4+
190303 L01  0.1+  0.2-    190304 585  0.2-  0.0     190305 K88  0.1-  0.4+
190303 K88  0.0   0.3+    190304 585  0.3-  0.2-    190305 L04  0.0   0.2+
190303 K88  0.0   0.5+    190304 585  0.3-  0.3-    190305 L04  0.3+  0.5+
190303 C95  0.0   0.3-    190305 Z80  0.4+  0.0     190305 L04  0.1-  0.0
190303 C95  0.1-  0.1+    190305 Z80  0.1+  0.1-    190305 K38  0.4+  0.3+
190303 104  0.0   0.2-    190305 Z80  0.2-  0.6-    190305 K38  0.4-  0.3-
190303 104  0.1-  0.0     190305 H01  0.0   0.1-    190305 K38  0.1+  0.2-
190303 595  0.0   0.3+    190305 I52  0.1-  0.1+    190305 K38  0.1-  0.0
190303 595  0.4+  0.1+    190305 I52  0.1-  0.0     190305 K38  0.4+  0.1-
190303 C95  0.1-  0.0     190305 I52  0.0   0.1-
190303 104  0.0   0.1-    190305 I52  0.1-  0.1-

Ephemeris:
2019 EQ                  a,e,i = 2.16, 0.71, 17                  q = 0.6202
Date    TT    R. A. (2000) Decl.     Delta      r     Elong.  Phase     V
2019 02 03    22 31 04.9 +24 58 25   0.3832  0.7752    46.8   112.1    21.1
...
2019 02 18    00 08 21.4 +55 10 29   0.2453  0.9418    72.0    93.6    19.6
...
2019 02 26    03 59 51.4 +68 06 10   0.2300  1.0363    95.2    72.1    18.8
...
2019 03 04    06 56 25.9 +59 29 45   0.2557  1.1077   110.6    56.9    18.7
2019 03 05    07 12 56.6 +57 23 29   0.2627  1.1195   112.7    54.8    18.7
2019 03 06    07 26 58.2 +55 16 55   0.2704  1.1314   114.6    52.9    18.8
...
2019 03 12    08 19 27.8 +43 48 56   0.3283  1.2022   122.5    44.2    19.1
...
2019 03 20    08 52 50.1 +32 53 11   0.4279  1.2952   126.2    38.3    19.7
...
2019 04 04    09 25 09.6 +21 09 45   0.6543  1.4640   123.1    34.9    20.7

A. U. Tomatic                (C) Copyright 2019 MPC           M.P.E.C. 2019-E44



More information about the Iaude mailing list